Location: Newark
(44.3100°N, 0.7769°W)
Time: 16:27:51
(UTC+00:00)

Envisat - Pass Details

Date: 19 November 2019
Orbit: 764 x 766 km, 98.1° (Epoch: 09 December)

Event Time Altitude Azimuth Distance (km) Brightness Sun altitude
Rises 17:15:46 0° 143° (SE) 3,221 6.0 -7.9°
Reaches altitude 10° 17:18:11 10° 135° (SE) 2,299 5.2 -8.3°
Maximum altitude 17:22:51 38° 69° (ENE) 1,150 3.4 -9.1°
Drops below altitude 10° 17:27:32 10° 2° (N) 2,313 5.3 -9.9°
Sets 17:29:58 0° 354° (N) 3,243 6.1 -10.3°
